BEIDOU-3 M16 (C35)

Last updated on Jan. 19, 2020, 4:38 a.m. UTC

1 43648U 18078B   20018.70287171 -.00000074  00000-0  10000-3 0  9999
2 43648  55.1676  20.8103 0005049 327.9454 161.5653  1.86232518  8576
UTC
Height (km)
Latitude
Longitude
Inclination
Orbital Period
UTC large
Height (km)
Speed (km/s)
/
Latitude / Longitude
Inclination (degrees)
Orbital Period (minutes)
Azimuth
Elevation
Range (km)
Doppler Factor
iOS Compass Heading
iOS Angle

Next 30 passes for location: Hong Kong

Rise time Rise Azimuth (degrees) Set time Set Azimuth (degrees) Duration Max altitude (degrees)

No matching passes for this satellites